Weather in Rajshahi

Bangladesh     24°22′03″N   88°36′20″E
temp.,
°C
wind,
m/s
gust,
m/s
humid.,
%
clouds,
%
prec.,
mm/h
press.,
hPa
HPBL,
m
24 january, sun
sun2400:00+16n11584 0.0 101323
03:00+15wsw225985 0.0 101223
06:00+15w11630 0.0 101123
09:00+19s115041 0.0 1015193
12:00+25s233234 0.0 10141201
15:00+27sw23250 0.0 10101608
18:00+22se23330 0.0 101123
21:00+20e22360 0.0 101323
25 january, mon
mon2500:00+17ne22440 0.0 101423
03:00+15ssw22490 0.0 101323
06:00+15e11520 0.0 101323
09:00+20e11430 0.0 1016189
12:00+27se23370 0.0 1013893
15:00+30sw33370 0.0 10101666
18:00+23ene11330 0.0 101123
21:00+20n33360 0.0 101325
26 january, tue
tue2600:00+18nne34410 0.0 101361
03:00+16ssw12470 0.0 101223
06:00+15nne11490 0.0 101323
09:00+21nnw11390 0.0 1015184
12:00+27ne23260 0.0 10141190
15:00+28nw23250 0.0 10101730
18:00+23ene01340 0.0 101023
21:00+20n23390 0.0 101227
27 january, wed
wed2700:00+17n23440 0.0 101323
03:00+16n34460 0.0 101242
06:00+15n33480 0.0 101328
09:00+20nnw22370 0.0 1015217
12:00+26nnw23250 0.0 1015914
15:00+28nw34230 0.0 10111790
18:00+22ne01330 0.0 101123
21:00+19n33370 0.0 101429
28 january, thu
thu2800:00+18n33360 0.0 101430
03:00+16n34370 0.0 101341
06:00+15nnw34390 0.0 101335
09:00+20n34360 0.0 1016214
12:00+26nnw22240 0.0 1014770
15:00+28nw23230 0.0 10111306
18:00+23ene01320 0.0 101024
21:00+20n22340 0.0 101423